Weather reports worldwide

Advertisment
Altnaharra, United Kingdom (3044): temperature & dewpoint: 14.07.2018 23:00:00 - 20.07.2018 23:00:00 (BST)Altnaharra, United Kingdom (3044): temperature -20cm & temperature -100cm: 14.07.2018 23:00:00 - 20.07.2018 23:00:00 (BST)Altnaharra, United Kingdom (3044): wind speed: 14.07.2018 23:00:00 - 20.07.2018 23:00:00 (BST)Altnaharra, United Kingdom (3044): wind direction: 14.07.2018 23:00:00 - 20.07.2018 23:00:00 (BST)Altnaharra, United Kingdom (3044): reduced air pressure: 14.07.2018 23:00:00 - 20.07.2018 23:00:00 (BST)Altnaharra, United Kingdom (3044): visibility: 14.07.2018 23:00:00 - 20.07.2018 23:00:00 (BST)Altnaharra, United Kingdom (3044): sunshine duration: 14.07.2018 23:00:00 - 20.07.2018 23:00:00 (BST)Altnaharra, United Kingdom (3044): precipitation: 14.07.2018 23:00:00 - 20.07.2018 23:00:00 (BST)
Date & Time tt [°C] td [°C] tt -20cm [°C] tt -100cm [°C] ff [km/h] ff [kn] dd ppp [hPa] vv [km] sd [min] rr [mm]
20.07.2018 23:00:00 12,2 11,0 - - 9 5 ENE 1013,1 30 0 0,0
20.07.2018 22:00:00 12,9 11,1 - - 5 3 NNE 1012,9 45 0 0,0
20.07.2018 21:00:00 13,8 12,0 - - 4 2 W 1012,7 40 0 0,0
20.07.2018 20:00:00 14,2 12,4 - - 9 5 ENE 1012,2 45 0 0,0
20.07.2018 19:00:00 14,8 13,1 - - 11 6 E 1012,2 50 0 0,0
20.07.2018 18:00:00 14,6 12,6 - - 8 4 E 1011,9 27 0 0,0
20.07.2018 17:00:00 14,5 12,6 - - 11 6 NW 1011,8 40 0 0,0
20.07.2018 16:00:00 16,2 13,2 - - 15 8 NW 1011,3 45 6 0,0
20.07.2018 15:00:00 17,5 14,6 - - 21 11 NNW 1011,0 29 18 0,0
20.07.2018 14:00:00 16,2 13,2 - - 18 10 WNW 1010,6 50 0 0,0
20.07.2018 13:00:00 18,5 14,0 - - 5 3 WNW 1010,1 45 18 0,0
20.07.2018 12:00:00 17,2 13,4 - - 8 4 W 1009,9 30 6 0,0
20.07.2018 11:00:00 15,9 13,9 - - 11 6 S 1010,0 30 0 0,2
20.07.2018 10:00:00 14,9 14,1 16,0 14,0 5 3 S 1010,3 15 0 2,0
20.07.2018 09:00:00 14,3 13,2 - - 9 5 S 1010,4 9 0 0,2
20.07.2018 08:00:00 13,9 12,9 - - 9 5 S 1010,2 50 0 0,8
20.07.2018 07:00:00 13,3 12,2 - - 11 6 S 1010,2 7 0 1,4
20.07.2018 06:00:00 13,2 11,7 - - 9 5 S 1010,2 8 0 0,2
20.07.2018 05:00:00 13,3 11,1 - - 5 3 SSW 1010,5 50 0 0,0
20.07.2018 04:00:00 12,7 11,2 - - 5 3 SW 1010,9 50 0 0,4
20.07.2018 03:00:00 12,9 10,6 - - 13 7 S 1011,3 50 0 0,0
20.07.2018 02:00:00 12,8 10,9 - - 11 6 S 1012,2 45 0 0,0
20.07.2018 01:00:00 12,3 10,8 - - 9 5 S 1012,8 40 - 0,4
20.07.2018 00:00:00 12,0 10,4 - - 5 3 NNW 1013,5 29 0 0,4
19.07.2018 23:00:00 12,4 10,3 - - 2 1 ESE 1013,9 45 0 0,0
19.07.2018 22:00:00 12,9 10,3 - - 9 5 S 1014,4 20 0 0,0
19.07.2018 21:00:00 14,8 10,0 - - 0 0 N 1014,5 50 0 0,0
19.07.2018 20:00:00 15,2 9,0 - - 5 3 S 1014,7 50 0 0,0
19.07.2018 19:00:00 16,0 8,4 - - 15 8 S 1014,8 18 0 0,0
19.07.2018 18:00:00 16,8 8,5 - - 11 6 S 1014,7 50 0 0,0
19.07.2018 17:00:00 17,4 9,2 - - 9 5 SSW 1015,4 30 0 0,0
19.07.2018 16:00:00 17,5 8,7 - - 11 6 SSW 1015,7 45 36 0,0
19.07.2018 15:00:00 18,6 7,6 - - 16 9 SW 1016,1 27 54 0,0
19.07.2018 14:00:00 17,1 8,4 - - 16 9 SSW 1016,4 50 36 0,0
19.07.2018 13:00:00 17,7 8,0 - - 15 8 SW 1016,5 40 24 0,0
19.07.2018 12:00:00 17,1 8,0 - - 16 9 SW 1016,7 23 24 0,0
19.07.2018 11:00:00 17,1 8,3 - - 16 9 S 1016,9 21 30 0,0
19.07.2018 10:00:00 15,5 9,3 15,9 14,0 11 6 S 1017,3 45 0 0,0
19.07.2018 09:00:00 15,6 9,2 - - 13 7 SW 1017,7 50 30 0,0
19.07.2018 08:00:00 15,0 9,3 - - 11 6 S 1017,9 50 60 0,0
19.07.2018 07:00:00 13,8 9,9 - - 9 5 S 1018,2 50 18 0,0
19.07.2018 06:00:00 11,0 9,6 - - 2 1 N 1018,4 50 0 0,0
19.07.2018 05:00:00 10,2 8,9 - - 2 1 E 1018,4 45 0 0,0
19.07.2018 04:00:00 9,9 8,7 - - 4 2 NNW 1018,6 35 0 0,0
19.07.2018 03:00:00 9,9 8,9 - - 4 2 W 1018,7 50 0 0,0
19.07.2018 02:00:00 9,8 8,7 - - 5 3 WNW 1018,9 50 0 0,0
19.07.2018 01:00:00 10,2 8,4 - - 2 1 W 1019,2 50 - 0,0
19.07.2018 00:00:00 10,1 7,7 - - 4 2 NE 1019,1 50 0 0,0
18.07.2018 23:00:00 11,2 7,8 - - 4 2 WSW 1019,0 50 0 0,0
18.07.2018 22:00:00 12,7 8,6 - - 2 1 NNE 1019,0 50 0 0,0
18.07.2018 21:00:00 14,2 8,4 - - 5 3 W 1018,6 50 42 0,0
18.07.2018 20:00:00 16,4 8,2 - - 11 6 W 1018,3 50 24 0,0
18.07.2018 19:00:00 15,4 7,5 - - 9 5 WSW 1018,2 50 0 0,0
18.07.2018 18:00:00 16,2 8,3 - - 11 6 WSW 1017,9 45 6 0,0
18.07.2018 17:00:00 16,1 7,7 - - 18 10 WSW 1017,8 35 6 0,0
18.07.2018 16:00:00 16,2 8,0 - - 21 11 W 1017,6 35 0 0,0
18.07.2018 15:00:00 15,6 9,6 - - 16 9 WSW 1017,4 45 0 0,0
18.07.2018 14:00:00 15,4 9,4 - - 21 11 WSW 1017,0 45 0 0,0
18.07.2018 13:00:00 14,8 9,7 - - 9 5 W 1016,6 35 6 0,0
18.07.2018 12:00:00 14,8 10,5 - - 8 4 SW 1016,2 50 0 0,2
18.07.2018 11:00:00 12,0 10,1 - - 13 7 W 1016,4 5 0 0,4
18.07.2018 10:00:00 14,6 8,7 16,0 14,0 11 6 SW 1015,9 35 18 0,0
18.07.2018 09:00:00 13,3 9,3 - - 8 4 SSW 1015,7 50 0 0,0
18.07.2018 08:00:00 12,4 9,9 - - 9 5 SSE 1015,5 45 0 0,0
18.07.2018 07:00:00 11,7 9,3 - - 11 6 S 1015,1 50 0 0,0
18.07.2018 06:00:00 10,5 9,3 - - 11 6 S 1014,9 50 0 0,0
18.07.2018 05:00:00 10,4 9,2 - - 5 3 SSW 1014,5 50 0 0,0
18.07.2018 04:00:00 10,8 9,3 - - 13 7 S 1014,4 50 0 0,0
18.07.2018 03:00:00 11,1 9,7 - - 8 4 S 1014,3 29 0 0,2
18.07.2018 02:00:00 11,3 9,5 - - 11 6 S 1014,2 50 0 0,0
18.07.2018 01:00:00 11,4 9,2 - - 5 3 S 1014,3 50 - 0,0
18.07.2018 00:00:00 11,0 9,2 - - 2 1 S 1014,3 50 0 0,0
17.07.2018 23:00:00 12,1 9,1 - - 2 1 SSW 1013,9 50 0 0,0
17.07.2018 22:00:00 12,7 9,1 - - 5 3 SW 1013,7 50 0 0,0
17.07.2018 21:00:00 13,3 9,1 - - 5 3 SW 1013,3 50 0 0,0
17.07.2018 20:00:00 14,3 9,6 - - 15 8 W 1012,9 50 0 0,0
17.07.2018 19:00:00 14,0 11,8 - - 8 4 E 1012,6 50 0 0,0
17.07.2018 18:00:00 13,5 12,2 - - 11 6 N 1012,5 40 0 0,2
17.07.2018 17:00:00 13,7 12,1 - - 18 10 NE 1012,1 50 0 0,0
17.07.2018 16:00:00 15,9 11,4 - - 9 5 W 1011,8 40 6 0,0
17.07.2018 15:00:00 16,4 11,9 - - 2 1 WNW 1011,8 40 6 0,4
17.07.2018 14:00:00 13,4 11,8 - - 5 3 S 1012,2 7 0 0,8
17.07.2018 13:00:00 15,8 9,9 - - 11 6 W 1011,6 35 0 0,0
17.07.2018 12:00:00 17,3 9,6 - - 4 2 NNW 1011,3 50 12 0,0
17.07.2018 11:00:00 15,7 9,0 - - 9 5 W 1011,3 50 0 0,0
17.07.2018 10:00:00 15,7 10,1 16,2 13,9 5 3 W 1011,3 40 0 0,0
17.07.2018 09:00:00 14,6 10,1 - - 9 5 SSW 1011,3 50 0 0,0
17.07.2018 08:00:00 13,8 10,4 - - 11 6 S 1011,4 50 0 0,0
17.07.2018 07:00:00 12,9 10,9 - - 4 2 SSW 1011,2 45 0 0,0
17.07.2018 06:00:00 11,4 10,1 - - 0 0 N 1011,0 50 0 0,0
17.07.2018 05:00:00 10,8 9,5 - - 4 2 WNW 1011,1 50 0 0,0
17.07.2018 04:00:00 10,5 9,4 - - 5 3 E 1011,3 50 0 0,0
17.07.2018 03:00:00 10,0 9,0 - - 2 1 NNE 1011,3 50 0 0,0
17.07.2018 02:00:00 8,2 6,7 - - 5 3 SE 1011,5 45 0 0,0
17.07.2018 01:00:00 11,4 8,4 - - 4 2 WSW 1011,5 50 - 0,0
17.07.2018 00:00:00 12,5 10,1 - - 4 2 S 1011,6 50 0 0,0
16.07.2018 23:00:00 12,5 10,2 - - 2 1 ESE 1011,5 50 0 0,0
16.07.2018 22:00:00 13,7 10,3 - - 4 2 WNW 1011,2 50 0 0,0
16.07.2018 21:00:00 15,2 10,5 - - 9 5 WNW 1010,9 40 18 0,0
16.07.2018 20:00:00 17,0 9,1 - - 8 4 SW 1010,4 45 42 0,0
16.07.2018 19:00:00 18,0 8,4 - - 13 7 SSW 1010,2 50 18 0,0
16.07.2018 18:00:00 17,9 8,7 - - 13 7 SW 1010,1 40 0 0,0
16.07.2018 17:00:00 18,1 10,1 - - 16 9 W 1009,9 35 6 0,0
16.07.2018 16:00:00 18,4 9,8 - - 13 7 SSW 1009,8 30 6 0,0
16.07.2018 15:00:00 18,9 9,3 - - 9 5 SSW 1009,9 50 42 0,0
16.07.2018 14:00:00 18,6 10,8 - - 15 8 SW 1010,0 30 30 0,0
16.07.2018 13:00:00 19,0 9,5 - - 15 8 S 1009,7 45 30 0,0
16.07.2018 12:00:00 18,2 10,4 - - 13 7 SSE 1009,7 20 18 0,0
16.07.2018 11:00:00 17,3 10,9 - - 8 4 SW 1009,8 30 18 0,0
16.07.2018 10:00:00 16,3 9,5 16,0 13,9 9 5 WSW 1009,8 35 42 0,0
16.07.2018 09:00:00 17,1 10,4 - - 9 5 SW 1009,6 35 48 0,0
16.07.2018 08:00:00 15,0 10,9 - - 8 4 S 1009,7 35 6 0,0
16.07.2018 07:00:00 14,0 11,1 - - 11 6 S 1009,3 45 0 0,0
16.07.2018 06:00:00 13,2 11,3 - - 9 5 S 1009,4 45 0 0,0
16.07.2018 05:00:00 13,5 10,8 - - 4 2 WNW 1009,5 50 0 0,0
16.07.2018 04:00:00 14,5 11,8 - - 4 2 SSW 1009,2 50 0 0,0
16.07.2018 03:00:00 15,0 12,9 - - 8 4 WSW 1009,0 50 0 0,2
16.07.2018 02:00:00 16,2 14,8 - - 11 6 W 1008,7 50 0 0,0
16.07.2018 01:00:00 16,6 15,0 - - 5 3 NW 1008,6 40 - 0,0
16.07.2018 00:00:00 17,7 15,2 - - 9 5 S 1008,7 50 0 0,0
15.07.2018 23:00:00 17,5 15,8 - - 5 3 S 1008,8 50 0 0,0
15.07.2018 22:00:00 17,6 16,8 - - 5 3 W 1009,0 50 0 0,0
15.07.2018 21:00:00 18,5 17,4 - - 9 5 NE 1008,9 50 0 0,0
15.07.2018 20:00:00 18,4 17,4 - - 13 7 NE 1009,3 35 0 0,0
15.07.2018 19:00:00 19,3 17,3 - - 8 4 E 1009,5 50 0 0,0
15.07.2018 18:00:00 19,5 17,7 - - 9 5 WNW 1009,7 40 0 0,2
15.07.2018 17:00:00 19,2 17,4 - - 8 4 SSE 1009,8 26 0 1,0
15.07.2018 16:00:00 17,8 16,5 - - 13 7 S 1010,4 5 0 3,4
15.07.2018 15:00:00 21,2 16,4 - - 9 5 SSE 1009,8 40 0 0,0
15.07.2018 14:00:00 20,7 16,2 - - 15 8 SSE 1009,8 50 0 0,0
15.07.2018 13:00:00 19,9 16,7 - - 5 3 S 1010,2 35 0 0,2
15.07.2018 12:00:00 20,0 16,5 - - 9 5 S 1010,3 50 0 0,0
15.07.2018 11:00:00 19,2 17,1 - - 8 4 S 1010,4 23 0 0,2
15.07.2018 10:00:00 18,5 16,4 15,7 13,9 13 7 SSE 1010,4 40 0 0,2
15.07.2018 09:00:00 17,9 16,3 - - 13 7 S 1010,4 30 0 0,6
15.07.2018 08:00:00 17,4 15,7 - - 5 3 S 1010,4 45 0 0,0
15.07.2018 07:00:00 17,1 15,6 - - 5 3 SW 1010,1 21 0 0,6
15.07.2018 06:00:00 17,0 15,4 - - 9 5 S 1009,9 50 0 0,4
15.07.2018 05:00:00 17,0 15,4 - - 13 7 S 1009,8 27 0 0,8
15.07.2018 04:00:00 16,9 15,3 - - 13 7 SSE 1010,3 40 0 0,2
15.07.2018 03:00:00 16,7 15,0 - - 9 5 S 1010,2 30 0 0,4
15.07.2018 02:00:00 16,9 14,8 - - 16 9 SSE 1010,7 13 0 0,0
15.07.2018 01:00:00 17,8 14,5 - - 15 8 S 1010,6 50 - 0,0
15.07.2018 00:00:00 18,2 14,6 - - 9 5 S 1010,9 50 0 0,0
14.07.2018 23:00:00 18,1 14,4 - - 11 6 SSE 1011,3 50 0 0,0

tt = temperature
td = dewpoint
tt -20cm = temperature -20cm
tt -100cm = temperature -100cm
ff = wind speed
dd = wind direction
ppp = reduced air pressure
vv = visibility
sd = sunshine duration
rr = precipitation

Next stations